Погода Улан-Удэ

Погода Улан-Удэ : погода сейчас, прогноз погоды и архив. Всё, что Вы хотите узнать о погоде Улан-Удэ!

Поиск расширенной информации на нашем сайте:

Другие новости

Новости СМИ2

Главная страница сайта

Новости сайта

02.10.2013

Напоминаем, что на нашем новом сайте вы можете получить высокодетализированные прогнозы погоды по пунктам России, СНГ и мира (включающие важные для авиации метеовеличины, такие как направление и скорость ветра, видимость, явления погоды, количество и форма облачности, нижняя и верхняя граница облачности), а также ознакомиться с разнообразными материалами по авиационной метеорологии и подборкой полезных ссылок на эту тему.

Сайт Метеоцентр.Азия посвящён разработке технологий оптимизации авиаметеорологического обслуживания, включая проектирование и перспективное создание нескольких автоматизированных авиаметеорологических систем:
- система выпуска высокодетальных прогностических карт явлений погоды для нижнего воздушного пространства по России и ближнему зарубежью;
- система верификации прогнозов TAF (выпускаемых синоптиками официальных АМСГ РФ и ближнего зарубежья) и AUTOTAF (выпускаемых сайтом Метеоцентр.Азия) - выявление ошибок, онлайн-сопоставление с фактической погодой METAR, автоматическое внесение коррективов в прогнозы при резком отклонении фактической погоды от прогноза, подсчёт оправдываемости прогнозов по элементам и в целом;
- система обработки, анализа и отображения авиаметеорологической информации для применения провайдерами метеорологической информации.

Рекомендуем: Сравнить цены на мойку.

Погода Улан-Удэ - сегодня

Время (UTC), дата Ветер
(°,м/с) 
Видим.   Явления Облачность Т
(°С)
Тd
(°С)
f(%) Тe
(°С)
Pmin
(гПа)
dP
(гПа)
Po
(мм)
O2
(г/м3)
Тmin Tmax R s Состояние
почвы
21 23.06.17 080 (В) 20000 м    10/0 верхняя 
[Ci fib]
+16.1 +6 51 +17  1007.3  711  270           
00 24.06.17 220 (ЮЗ) 20000 м    10/0 верхняя 
[Ci fib]
+20.7 +8.6 46 +21  1006.3  0.1  711  265  +16.1        сухая 
03 24.06.17 070 (В) 20000 м    ясно 
+30.7 +8.4 25 +31  1002.4  -1.8  710  256           
06 24.06.17 250 (З) 20000 м    ясно 
+37.1 +6 15 +37  998.6  -2.6  708  250           
09 24.06.17 240 (ЮЗ) 4{11}  20000 м    ясно 
+38 +6.4 14 +38  996.7  -1.6  707  249           
12 24.06.17 тихо ()   20000 м    3/0 верхняя 
[Ci fib]
+34.3 +10 23 +37  997.2  0.1  707  251    +38.3       
15 24.06.17 360 (С) 20000 м    3/0 верхняя 
[Ci fib]
+26.4 +10.8 38 +30  999.6  0.9  707  258           
18 24.06.17 210 (ЮЗ) 20000 м    ясно 
+19.9 +10.6 55 +24  1001.9  0.9  708  264           
21 24.06.17 240 (ЮЗ) 20000 м    1/0 верхняя 
[Ci sp]
+16.9 +11.6 71 +23  1003  0.5  709  267           
00 25.06.17 010 (С) 20000 м    3/0 верхняя 
[Ci sp]
+23.2 +10.9 46 +27  1002.2  0.5  709  261  +16.6        сухая 
03 25.06.17 250 (З) 20000 м  дым  10/5 1000 м средняя, верхняя 
[Sc|Ac cast|Ci sp]
+28.5 +12.3 37 +34  1000.3  -0.8  708  256           
06 25.06.17 310 (СЗ) 20000 м  дым  10/0 средняя, верхняя 
[Ac trans|Ci fib]
+36.2 +8.7 19 +37  996.8  -2.1  707  250           
09 25.06.17 290 (З) 20000 м  дым  10/5 600 м кучево-дожд., верхняя 
[Cb cap|Ci fib]
+37.5 +7.9 17 +38  994.6  -1.8  705  249           
12 25.06.17 260 (З) 3{11}  20000 м    10/4 1000 м кучево-дожд., средняя, верхняя 
[Cb cap|Ac trans|Ci sp]
+34.7 +8.3 20 +35  995.7  0.6  706  251    +38.9       
15 25.06.17 250 (З) 20000 м  дым  10/3 1000 м кучево-дожд., средняя, верхняя 
[Cb cap|Ac trans|Ci fib]
+25.1 +17 61 +39  999  1.6  707  257           
18 25.06.17 210 (ЮЗ) 20000 м  {ливн. осадки}  9/8 1000 м кучево-дожд., средняя, верхняя 
[Cb cap|Ac trans|Ci fib]
+23.4 +16 63 +36  999.5  0.1  707  259           
21 25.06.17 220 (ЮЗ) 20000 м  дым  10/8 1000 м верхняя 
[Sc|Ci sp]
+21 +14.7 67 +31  1000.7  0.7  707  262           
00 26.06.17 280 (З) 10 км  дым  9/0 средняя, верхняя 
[Ac cast|Ci fib]
+24 +15.8 60 +36  1000.3  0.3  708  259  +20.5    0.0    сухая 
03 26.06.17 300 (СЗ) 20000 м  дым  8/0 верхняя 
[Ci fib]
+31.8 +16.5 40 +45  997.7  -1.1  707  252           
06 26.06.17 010 (С) 20000 м  дым  8/1 1000 м верхняя 
[Cu med, cong|Ci fib]
+36.6 +14.1 26 +45  995.8  -1  706  248           
09 26.06.17 320 (СЗ) 20000 м  дым  9/0 верхняя 
[Ci sp]
+36.4 +14.6 27 +46  994.8  -0.9  705  248           
12 26.06.17 260 (З) 2{12}  10 км  дым  10/3 1000 м кучево-дожд., верхняя 
[Cb cap|Ci sp]
+29.4 +14.7 41 +39  998.7  2.4  707  254    +36.8       
15 26.06.17 220 (ЮЗ) 10 км  дым  10/0 средняя, верхняя 
[Ac trans|Ci sp]
+27.1 +14.7 47 +37  999.7  0.5  708  256           
18 26.06.17 350 (С) 20000 м  дым  10/0 средняя, верхняя 
[Ac trans|Ci sp]
+25.2 +15.9 56 +37  1002.5  2.4  709  258           
21 26.06.17 340 (С) 20000 м  дым  10/3 1000 м средняя, верхняя 
[Sc|Ac trans|Ci fib]
+23 +16.4 66 +36  1004.2  1.2  710  260           
Время (UTC), дата Ветер
(°,м/с) 
Видим.   Явления Облачность Т
(°С)
Тd
(°С)
f(%) Тe
(°С)
Pmin
(гПа)
dP
(гПа)
Po
(мм)
O2
(г/м3)
Тmin Tmax R s Состояние
почвы

Для получения пояснительной информации подведите курсор к названию столбца.

ПОГОДА Улан-Удэ - архив

Всё, что Вы хотите узнать о погоде Улан-Удэ - удобно и подробно!

Выберите нужную дату (начиная с 1 января 2015* года) и нажмите кнопку "Найти".
Будут отображены архивные сводки погоды по пункту Улан-Удэ, начиная с указанной даты.


Отображать данные в формате CSV (для использования в таблицах Excel)


Внимание! Наш архив погоды предназначен исключительно для личного некоммерческого использования в познавательных целях. Если Вам необходимы официальные справки о состоянии погоды (для производственных, юридических, коммерческих и т.п. целей), обращайтесь в органы Росгидромета.

*Примечание: данная дата относится к архиву по метеостанциям СССР (Россия, СНГ, Балтия).
Архив по метеостанциям Зарубежной Европы и Азии (кроме Китая) хранится 10 дней, по другим регионам земного шара (Китай, Африка, Америка, Австралия, Океания) - 1 день.

Улан-Удэ - район местоположения метеостанции


Название, широта, долгота, высота метеостанции:
Улан-Удэ (город) 51.8°ш. 107.5°д. 530 м над ур. моря [Российская Федерация]

Дополнительная информация

В oтличие oт бoльшинства пoгoдных сайтoв мы публикуем пoдрoбную метеoинфoрмацию в детальнoм прoфессиoнальнoм фoрмате.

Характеристики температуры и влажнoсти вoздуха измеряются на высoте 2 м в тени вдали oт зданий и деревьев.
Скoрoсть ветра измеряется на высoте 10 м (на урoвне рoста челoвека скoрoсть ветра ниже в 1.5-2 раза). Если метеoстанция нахoдится в гoрoде или в лесу, тo скoрoсть ветра занижена на 2-4 м/с пo сравнению с oткрытым местoм. Скoрoсть ветра над акватoриями крупных рек и oзёр, а также на вершинах хoлмoв на 2-5 м/с выше, чем в oбычных услoвиях.
Атмoсфернoе давление в разных тoчках местнoсти мoжет значительнo oтличаться oт давления на метеoстанции, в зависимoсти oт услoвий рельефа (при пoдъёме на 10 м давление пoнижается примернo на 1 мм рт.ст.).